TimeSAST,TemperatureF,Dew PointF,Humidity,Sea Level PressureIn,VisibilityMPH,Wind Direction,Wind SpeedMPH,Gust SpeedMPH,PrecipitationIn,Events,Conditions,WindDirDegrees,DateUTC
12:00 AM,62.6,59.0,88,30.04,6.2,WNW,9.2,-,N/A,,Mostly Cloudy,290,2013-03-18 22:00:00
1:00 AM,60.8,57.2,88,30.01,-9999.0,WNW,9.2,-,N/A,,Clear,290,2013-03-18 23:00:00
2:00 AM,60,56,81,30.03,12,WNW,10.4,,,,,300,2013-03-19 00:00:00
2:00 AM,60.8,55.4,82,30.04,-9999.0,WNW,10.4,-,N/A,,Clear,300,2013-03-19 00:00:00
3:00 AM,60.8,53.6,77,30.01,-9999.0,WNW,11.5,-,N/A,,Clear,300,2013-03-19 01:00:00
4:00 AM,60.8,53.6,77,30.01,-9999.0,WNW,9.2,-,N/A,,Clear,290,2013-03-19 02:00:00
5:00 AM,61,54,71,30.02,12,West,11.5,,,,Mostly Cloudy,270,2013-03-19 03:00:00
5:00 AM,60.8,53.6,77,30.01,6.2,West,11.5,-,N/A,,Mostly Cloudy,270,2013-03-19 03:00:00
6:00 AM,60.8,53.6,77,30.04,6.2,NW,13.8,-,N/A,,Scattered Clouds,310,2013-03-19 04:00:00
7:00 AM,60.8,53.6,77,30.04,6.2,WNW,11.5,-,N/A,,Partly Cloudy,290,2013-03-19 05:00:00
8:00 AM,64,56,67,30.07,12,WNW,11.5,,,,Scattered Clouds,290,2013-03-19 06:00:00
8:00 AM,64.4,55.4,73,30.06,6.2,WNW,11.5,-,N/A,,Partly Cloudy,290,2013-03-19 06:00:00
9:00 AM,66.2,55.4,68,30.06,6.2,WNW,15.0,-,N/A,,Scattered Clouds,290,2013-03-19 07:00:00
10:00 AM,66.2,53.6,64,30.09,6.2,WSW,10.4,-,N/A,,Scattered Clouds,240,2013-03-19 08:00:00
11:00 AM,71,54,44,30.10,12,WSW,8.1,,,,Partly Cloudy,240,2013-03-19 09:00:00
11:00 AM,71.6,55.4,57,30.09,6.2,WSW,8.1,-,N/A,,Scattered Clouds,240,2013-03-19 09:00:00
12:00 PM,71.6,55.4,57,30.06,6.2,SSW,10.4,-,N/A,,Scattered Clouds,210,2013-03-19 10:00:00
1:00 PM,69.8,55.4,60,30.06,6.2,SSW,12.7,-,N/A,,Scattered Clouds,200,2013-03-19 11:00:00
2:00 PM,71,57,51,30.07,12,South,12.7,,,,Partly Cloudy,190,2013-03-19 12:00:00
2:00 PM,69.8,57.2,64,30.06,6.2,South,12.7,-,N/A,,Scattered Clouds,190,2013-03-19 12:00:00
3:00 PM,69.8,55.4,60,30.04,6.2,SSE,10.4,-,N/A,,Scattered Clouds,150,2013-03-19 13:00:00
4:00 PM,68.0,55.4,64,30.04,6.2,South,8.1,-,N/A,,Scattered Clouds,170,2013-03-19 14:00:00
5:00 PM,68,56,56,30.06,12,South,9.2,,,,Scattered Clouds,170,2013-03-19 15:00:00
5:00 PM,68.0,55.4,64,30.04,6.2,South,9.2,-,N/A,,Partly Cloudy,170,2013-03-19 15:00:00
6:00 PM,66.2,55.4,68,30.06,6.2,South,6.9,-,N/A,,Partly Cloudy,170,2013-03-19 16:00:00
7:00 PM,62.6,55.4,77,30.06,6.2,SE,5.8,-,N/A,,Mostly Cloudy,130,2013-03-19 17:00:00
8:00 PM,63,56,73,30.12,12,East,3.5,,,,Mostly Cloudy,90,2013-03-19 18:00:00
8:00 PM,62.6,57.2,82,30.09,6.2,East,3.5,-,N/A,,Mostly Cloudy,90,2013-03-19 18:00:00
9:00 PM,62.6,55.4,77,30.12,6.2,NNE,1.2,-,N/A,,Partly Cloudy,30,2013-03-19 19:00:00
10:00 PM,60.8,55.4,82,30.12,-9999.0,ENE,2.3,-,N/A,,Clear,70,2013-03-19 20:00:00
11:00 PM,57.2,53.6,88,30.12,-9999.0,NNE,3.5,-,N/A,,Clear,30,2013-03-19 21:00:00